Wind_Speed
37 37 37 38 40 41 42 42 42 43 43 44 44 45 46 47 47 47 47 48 48 48 49 49 49 50 49 49 49 49 49 49 49 47 47 48 48 48 48 48 48 48 48
39 39 40 40 42 43 44 44 45 45 46 46 47 46 47 48 48 49 48 49 49 50 50 50 50 50 50 50 50 50 50 50 50 49 49 49 48 49 49 49 49 49 48
41 42 42 43 43 44 45 46 47 47 48 48 48 48 48 49 50 50 50 50 50 51 51 51 51 50 50 50 50 50 50 51 51 51 50 49 49 49 49 49 49 49 48
42 43 44 44 45 46 47 47 48 48 48 49 49 49 49 50 50 51 52 52 51 51 51 51 51 51 51 51 50 50 50 50 50 50 49 49 49 49 49 49 48 48 48
44 44 45 46 47 47 48 49 49 49 49 50 50 50 50 50 51 52 52 52 52 51 51 51 52 52 51 51 50 50 50 50 50 49 49 49 50 50 49 49 48 48 48
45 45 46 47 48 48 49 50 50 50 50 50 51 51 51 52 51 52 52 53 52 51 50 50 51 51 51 51 51 50 50 50 49 49 49 50 50 50 49 49 49 48 48
46 46 47 48 49 50 50 51 51 51 51 51 51 50 50 51 51 51 52 52 51 50 50 50 50 50 50 50 49 49 49 50 50 49 49 49 49 49 49 49 48 48 48
47 48 48 49 49 50 51 51 52 52 52 51 51 51 50 50 50 51 51 50 50 49 49 49 49 48 48 48 48 48 48 48 48 49 49 49 48 48 49 48 48 47 47
48 49 49 49 50 50 50 51 51 51 50 50 50 50 49 49 49 49 49 48 48 48 47 47 47 47 47 47 46 46 46 46 47 48 48 48 48 48 48 47 47 47 46
48 49 49 49 50 50 49 49 49 49 49 48 48 48 48 48 48 47 48 48 47 47 47 47 47 47 46 46 46 45 45 45 46 46 46 47 47 47 47 46 46 46 46
49 49 49 49 49 49 48 48 47 47 47 47 46 47 47 47 47 47 47 47 46 46 46 45 45 45 45 44 44 44 44 44 43 43 43 44 45 45 44 43 43 44 44
48 48 48 47 47 47 46 46 46 46 46 46 46 46 45 45 45 45 46 46 46 45 44 43 43 43 42 43 43 42 42 42 41 41 41 41 42 42 41 41 41 41 41
46 46 46 46 45 45 45 45 45 45 45 44 44 44 44 44 44 44 45 45 44 44 42 41 40 40 40 40 40 40 40 40 39 39 39 39 40 40 40 39 39 39 39
44 44 44 44 43 43 43 44 44 43 43 43 43 43 43 43 43 43 43 43 42 41 41 40 39 38 38 38 38 38 38 38 38 38 37 37 37 37 38 38 37 37 37
44 44 43 43 43 42 42 42 42 42 42 42 41 42 42 42 42 43 42 41 40 40 39 38 37 36 36 37 37 37 37 36 36 36 36 36 35 35 35 35 35 35 36
43 43 42 42 42 42 42 41 41 41 40 40 40 41 41 42 42 41 41 40 39 38 38 37 36 35 35 35 35 35 35 35 35 35 34 34 34 34 33 33 33 34 35
42 42 41 41 41 41 41 41 40 40 40 40 40 40 40 41 40 39 39 38 37 37 36 36 35 34 34 33 33 33 33 33 33 32 32 32 32 32 32 32 32 32 33
42 41 40 40 40 40 40 40 40 40 40 40 40 40 40 39 39 38 37 36 35 35 35 34 33 32 32 32 32 32 32 32 31 30 31 31 31 30 30 30 30 31 31
41 40 39 39 39 38 38 39 39 39 39 39 39 38 38 37 36 35 35 35 34 33 33 32 32 31 31 30 30 30 30 29 29 29 30 30 29 29 29 29 29 29 29
38 38 38 38 37 37 37 37 37 37 37 37 36 35 35 35 34 33 33 32 31 31 30 30 30 30 29 29 29 28 28 28 28 28 28 28 28 28 28 28 28 27 27
37 37 37 37 37 36 36 36 37 36 36 35 33 33 33 33 32 31 31 30 29 28 28 29 29 29 29 28 28 28 27 27 27 27 27 27 27 27 27 27 27 27 27
36 36 36 36 35 35 35 35 35 34 33 32 32 31 31 31 30 29 29 28 27 27 27 28 28 28 28 27 27 26 26 26 26 27 26 27 26 26 25 25 26 26 26
34 34 33 33 33 33 33 33 32 32 31 31 30 30 30 29 29 28 27 26 26 26 26 27 27 27 26 25 25 25 25 26 26 26 25 25 24 24 24 25 25 25 25
33 33 32 31 31 31 31 30 30 31 30 29 29 28 28 27 26 26 25 25 26 25 25 25 25 25 24 24 24 24 25 25 25 24 24 24 23 23 23 23 24 23 23
31 31 30 29 29 29 29 28 28 28 28 28 27 26 25 24 24 24 24 24 24 24 24 23 23 23 23 23 23 23 23 23 23 23 23 22 22 22 22 22 22 22 22
30 29 29 28 28 28 28 27 27 27 26 26 26 25 24 23 23 23 23 22 22 22 22 23 22 22 22 22 22 22 22 22 23 22 21 21 21 21 21 22 22 22 22
Wind_Direction
270 270 271 270 268 268 269 270 271 272 273 273 274 275 276 276 276 276 276 276 276 276 277 277 277 277 278 279 279 279 279 279 279 279 278 278 278 277 278 278 278 277 277
271 270 271 271 270 269 269 270 272 272 273 274 275 275 276 276 276 277 278 277 277 277 277 277 278 278 278 278 279 279 279 279 278 278 278 278 278 278 278 278 278 277 276
272 271 271 271 271 272 272 272 273 273 274 274 275 275 276 277 277 277 277 278 278 278 278 278 278 278 278 278 279 279 279 279 278 278 278 278 278 278 278 278 277 276 275
274 272 272 272 272 273 274 275 275 274 274 274 275 275 276 276 277 277 278 279 279 279 278 278 277 277 278 278 278 279 280 279 279 278 278 278 278 278 278 278 276 275 275
274 274 273 273 273 274 274 274 275 275 276 275 276 276 276 277 278 278 278 279 279 279 279 278 277 277 278 278 278 279 279 279 279 278 278 278 278 278 278 277 276 276 276
275 274 274 274 274 274 274 274 275 275 276 277 277 276 277 277 278 278 279 279 279 279 280 279 278 278 278 278 279 279 279 279 278 278 279 279 279 278 277 277 277 277 277
274 274 274 274 275 275 275 275 275 276 276 276 277 277 278 278 279 279 279 279 279 280 281 281 280 279 279 279 279 278 278 278 278 278 279 279 278 277 277 277 277 278 278
275 275 275 275 275 276 275 276 276 276 276 277 278 278 278 279 280 280 279 279 279 280 281 281 281 280 279 278 278 279 279 278 278 278 278 278 278 278 278 278 278 279 278
276 276 275 275 276 276 276 276 277 276 276 276 277 277 278 279 280 279 279 279 280 280 281 281 281 280 278 277 278 278 278 278 278 278 277 278 278 279 279 279 278 278 278
276 276 276 276 276 276 277 277 276 276 277 276 276 277 278 279 279 279 279 280 280 280 280 281 280 280 279 278 277 278 278 278 278 278 278 278 278 279 279 279 279 279 279
277 277 276 277 276 276 277 277 277 277 277 277 277 277 278 279 279 279 280 281 281 281 280 280 279 278 277 277 277 278 278 278 279 279 279 279 279 279 279 279 279 279 279
277 277 277 277 277 276 276 276 277 277 277 277 277 278 278 279 279 279 280 281 281 281 280 280 280 278 277 277 277 278 279 279 279 279 279 279 279 279 279 279 279 279 279
277 277 277 277 276 276 276 276 276 277 278 278 278 278 278 278 278 279 280 281 281 281 280 279 279 278 278 278 278 278 278 279 279 279 279 279 279 279 279 279 280 279 278
278 277 277 276 275 275 275 275 276 277 278 278 278 278 279 279 279 279 280 280 280 280 279 278 278 278 278 278 279 278 279 279 279 279 279 280 280 280 280 279 279 279 279
277 276 276 275 275 274 274 276 277 277 278 278 278 279 279 280 280 280 280 279 279 278 277 277 277 278 280 280 279 278 279 279 280 280 279 280 281 281 280 280 280 279 280
277 276 276 275 275 274 275 276 277 277 277 278 278 279 280 281 281 281 280 279 277 276 276 277 278 278 279 279 278 278 279 279 280 280 280 280 281 281 280 280 280 280 281
277 276 276 275 274 274 274 275 275 275 276 277 277 279 280 282 282 281 280 279 277 276 277 277 278 278 279 278 278 278 279 279 280 280 280 280 280 280 280 280 281 281 281
276 276 275 274 274 274 273 274 275 276 276 276 276 277 279 281 281 280 279 278 277 277 277 278 278 278 278 277 277 278 279 280 280 279 279 280 280 280 280 281 282 282 282
276 276 275 274 274 274 274 274 275 276 277 277 276 276 277 278 279 280 280 279 278 277 277 277 277 277 277 276 276 277 279 279 279 280 280 280 280 280 280 281 282 283 284
276 275 274 274 274 274 275 275 275 277 278 277 275 275 275 277 278 279 280 279 278 277 276 275 276 276 276 276 277 278 279 280 281 281 281 280 280 279 279 281 283 284 285
275 275 275 274 275 275 275 275 275 276 277 275 275 275 276 277 278 278 278 277 276 275 275 275 276 275 274 275 276 278 279 280 280 281 281 280 280 279 278 280 282 284 285
276 275 275 274 274 274 275 276 276 276 275 274 274 275 276 277 278 277 276 276 276 275 275 276 277 275 274 275 276 277 278 279 279 280 281 281 279 278 279 280 283 285 286
277 276 275 274 274 274 275 276 276 274 275 274 273 274 276 277 277 275 275 275 276 276 276 275 275 274 273 273 275 276 277 278 279 280 281 280 278 277 279 281 283 284 286
277 277 276 275 275 275 275 276 275 275 274 273 273 274 275 275 274 274 273 274 276 276 276 275 275 274 272 272 275 276 278 279 281 282 282 280 278 278 279 281 283 284 286
277 276 275 274 273 274 275 276 276 276 274 272 271 272 272 272 272 272 273 275 275 274 274 275 275 273 272 273 275 276 278 280 282 283 282 279 276 276 278 281 282 284 286
276 275 274 273 273 273 274 275 277 277 275 272 270 269 269 269 269 272 273 273 274 274 274 275 275 273 272 273 274 276 278 280 281 281 280 278 276 277 279 281 282 283 286
Height
5682 5682 5682 5682 5682 5682 5682 5682 5682 5681 5681 5681 5680 5680 5679 5679 5678 5677 5677 5676 5675 5674 5673 5672 5671 5670 5668 5667 5666 5665 5663 5662 5662 5662 5660 5659 5658 5657 5656 5655 5654 5653 5653
5672 5672 5672 5672 5671 5671 5671 5671 5670 5670 5669 5669 5668 5667 5667 5666 5665 5664 5663 5662 5661 5660 5659 5658 5657 5655 5654 5653 5652 5651 5650 5648 5648 5648 5647 5645 5644 5643 5642 5641 5640 5639 5639
5662 5662 5661 5661 5660 5660 5660 5659 5658 5658 5657 5656 5655 5654 5654 5653 5651 5650 5649 5648 5647 5646 5644 5643 5642 5641 5640 5639 5638 5636 5635 5634 5633 5633 5633 5631 5630 5629 5628 5627 5626 5625 5624
5650 5650 5649 5649 5648 5648 5647 5646 5646 5645 5644 5643 5642 5641 5640 5639 5638 5636 5635 5634 5633 5631 5630 5628 5627 5626 5625 5624 5623 5622 5620 5619 5618 5618 5618 5617 5615 5614 5613 5612 5612 5611 5610
5638 5638 5637 5636 5636 5635 5634 5633 5632 5631 5630 5629 5628 5627 5626 5625 5623 5622 5620 5619 5618 5617 5615 5614 5613 5611 5610 5609 5608 5607 5606 5605 5604 5603 5603 5602 5601 5599 5598 5597 5597 5596 5595
5626 5625 5624 5623 5622 5622 5621 5619 5619 5618 5616 5615 5614 5613 5612 5610 5609 5607 5605 5604 5603 5602 5601 5599 5598 5596 5595 5594 5592 5591 5591 5590 5589 5588 5588 5587 5586 5585 5583 5582 5582 5581 5581
5612 5611 5610 5610 5609 5608 5607 5606 5605 5604 5602 5601 5600 5599 5598 5596 5594 5592 5590 5589 5588 5587 5585 5584 5583 5581 5580 5579 5577 5576 5575 5574 5574 5573 5573 5572 5571 5570 5569 5568 5567 5566 5565
5599 5598 5596 5595 5595 5594 5592 5591 5590 5589 5588 5587 5585 5584 5583 5582 5579 5577 5575 5574 5573 5572 5571 5569 5568 5566 5565 5564 5563 5562 5561 5560 5559 5558 5558 5557 5555 5554 5553 5553 5552 5551 5550
5585 5583 5582 5581 5580 5579 5578 5577 5576 5574 5573 5572 5571 5570 5568 5567 5565 5563 5561 5560 5559 5558 5556 5554 5553 5552 5550 5549 5548 5548 5547 5546 5544 5543 5542 5542 5540 5539 5538 5538 5537 5536 5536
5570 5569 5568 5567 5566 5564 5563 5562 5561 5560 5559 5558 5557 5555 5554 5553 5551 5548 5546 5545 5545 5543 5542 5540 5538 5537 5536 5534 5534 5533 5533 5532 5531 5530 5529 5528 5526 5525 5524 5523 5522 5521 5520
5556 5554 5553 5552 5551 5550 5549 5548 5547 5546 5545 5544 5543 5542 5540 5538 5537 5535 5533 5531 5529 5528 5527 5526 5524 5522 5522 5521 5520 5520 5519 5518 5517 5516 5516 5514 5513 5512 5510 5509 5508 5507 5506
5542 5540 5539 5538 5536 5535 5535 5534 5533 5532 5531 5530 5529 5528 5526 5525 5523 5521 5519 5517 5515 5514 5513 5512 5510 5509 5508 5508 5507 5506 5505 5504 5504 5503 5503 5501 5500 5499 5498 5496 5495 5494 5493
5528 5526 5525 5524 5523 5522 5521 5520 5519 5518 5517 5516 5515 5514 5513 5511 5510 5508 5506 5504 5502 5500 5499 5498 5497 5496 5496 5495 5494 5493 5493 5492 5492 5491 5490 5489 5488 5487 5486 5485 5484 5482 5481
5514 5513 5511 5510 5509 5509 5508 5507 5506 5505 5504 5503 5502 5500 5499 5498 5497 5495 5492 5491 5489 5487 5486 5485 5485 5484 5484 5483 5482 5481 5480 5480 5479 5479 5478 5477 5476 5475 5474 5473 5472 5471 5471
5501 5499 5498 5497 5496 5496 5495 5494 5493 5492 5491 5490 5489 5487 5486 5485 5484 5481 5479 5478 5477 5475 5474 5474 5473 5473 5472 5472 5471 5470 5469 5469 5468 5467 5467 5466 5465 5464 5463 5462 5461 5460 5460
5487 5486 5485 5484 5483 5483 5482 5482 5481 5480 5479 5477 5476 5475 5473 5472 5471 5469 5467 5465 5464 5464 5463 5463 5462 5462 5461 5460 5460 5459 5459 5458 5457 5456 5456 5455 5454 5453 5453 5452 5450 5450 5449
5474 5473 5472 5471 5471 5470 5469 5469 5468 5468 5467 5465 5464 5463 5461 5460 5458 5456 5455 5454 5453 5452 5451 5451 5451 5451 5450 5450 5449 5449 5448 5447 5446 5446 5445 5444 5444 5443 5442 5441 5440 5439 5438
5461 5461 5460 5459 5458 5457 5457 5456 5456 5455 5455 5454 5453 5451 5449 5448 5446 5445 5444 5442 5442 5441 5441 5441 5440 5440 5440 5440 5439 5439 5438 5437 5436 5436 5435 5434 5433 5433 5432 5431 5430 5429 5428
5449 5448 5447 5447 5446 5445 5445 5444 5443 5443 5442 5441 5441 5440 5438 5436 5435 5434 5432 5432 5431 5431 5430 5430 5430 5430 5430 5430 5429 5429 5428 5428 5427 5426 5425 5425 5424 5423 5422 5422 5421 5420 5419
5437 5436 5435 5435 5434 5434 5433 5432 5432 5431 5430 5429 5428 5428 5427 5426 5425 5424 5423 5422 5421 5421 5421 5421 5421 5421 5420 5420 5420 5419 5419 5418 5418 5417 5416 5415 5414 5414 5413 5413 5412 5411 5410
5425 5424 5424 5423 5423 5422 5421 5421 5420 5419 5419 5418 5417 5417 5416 5415 5415 5414 5413 5412 5412 5412 5412 5411 5411 5411 5411 5411 5411 5410 5410 5410 5409 5408 5407 5406 5406 5405 5405 5404 5403 5402 5401
5413 5413 5412 5412 5411 5411 5410 5410 5409 5408 5408 5407 5407 5406 5406 5405 5405 5404 5404 5403 5403 5402 5402 5402 5402 5402 5402 5402 5402 5402 5401 5401 5400 5399 5399 5398 5397 5397 5396 5396 5395 5394 5393
5402 5402 5401 5401 5400 5400 5399 5399 5398 5398 5397 5397 5397 5397 5396 5396 5395 5395 5394 5394 5394 5394 5393 5393 5393 5393 5393 5393 5393 5393 5393 5392 5392 5391 5390 5389 5389 5388 5388 5388 5387 5386 5385
5391 5391 5390 5390 5390 5390 5389 5389 5388 5388 5388 5387 5387 5387 5387 5386 5386 5386 5386 5386 5385 5385 5385 5385 5385 5385 5385 5385 5385 5385 5384 5384 5383 5383 5382 5382 5381 5381 5381 5380 5379 5379 5377
5381 5380 5380 5380 5380 5380 5380 5379 5379 5378 5378 5378 5378 5378 5378 5378 5378 5378 5378 5378 5378 5377 5377 5377 5377 5377 5377 5377 5377 5377 5377 5376 5376 5375 5375 5374 5374 5374 5373 5373 5372 5371 5370
5371 5371 5371 5371 5371 5371 5370 5370 5370 5369 5369 5369 5369 5369 5369 5370 5370 5370 5370 5370 5370 5370 5370 5370 5370 5370 5370 5370 5370 5370 5369 5369 5368 5368 5367 5367 5367 5367 5366 5366 5365 5364 5364